Regional Weather Roundup
Issued by NWS

Home | Current Version | Previous Version | Graphics & Text | Print | Product List | Glossary On
Versions: 1 2 3 4 5 6 7 8 9 10 11 12 13 14 15 16 17 18 19 20 21 22 23 24 25 26 27 28 29 30 31 32 33 34 35 36 37 38 39 40 41 42 43 44 45 46 47 48 49 50
000
ASUS43 KMPX 040910
RWRMN
WEATHER ROUNDUP FOR MINNESOTA
NATIONAL WEATHER SERVICE TWIN CITIES/CHANHASSEN MN
300 AM CST SUN DEC 04 2016


NOTE: "FAIR" INDICATES FEW OR NO CLOUDS BELOW 12,000 FEET WITH NO
SIGNIFICANT WEATHER AND/OR OBSTRUCTIONS TO VISIBILITY. N/A MEANS
CURRENT SKY AND/OR WEATHER CONDITIONS ARE NOT AVAILABLE.

MNZ060>063-068>070-041000-
   Twin Cities Metro

CITY           SKY/WX    TMP DP  RH WIND       PRES   REMARKS
TWIN CITIES    LGT SNOW  31  28  89 SE10      30.06F FOG     WCI  22
ST PAUL        LGT SNOW  31  31 100 SE10      30.08F FOG     WCI  22
CRYSTAL        LGT SNOW  32  28  85 SE8       30.04F FOG     WCI  25
BLAINE         LGT SNOW  34  32  93 SE7       30.04F WCI  28
LAKEVILLE      LGT SNOW  30  30 100 SE5       30.05F WCI  25
EDEN PRAIRIE   LGT SNOW  32  30  92 SE9       30.03F FOG     WCI  24
SOUTH ST PAUL  LGT SNOW  31  31  96 SE6       30.07F WCI  26
LAKE ELMO      LGT SNOW  32  30  93 SE6       30.08F WCI  26
$$
MNZ001>005-007-008-013>017-022>024-027-028-041000-
   Northwest Minnesota

CITY           SKY/WX    TMP DP  RH WIND       PRES   REMARKS
BEMIDJI        CLOUDY    28  26  93 SE10      29.92F WCI  19
HALLOCK        CLOUDY    34  30  86 SE14      29.82F FOG     WCI  24
ROSEAU         CLOUDY    30  27  86 SE10      29.88F WCI  21
WARROAD        CLOUDY    28  25  86 SE9       29.90F WCI  20
THIEF RVR FALL CLOUDY    32  30  92 SE17      29.85F WCI  21
CROOKSTON      CLOUDY    34  34 100 S17       29.84F FOG     WCI  23
FOSSTON        CLOUDY    30  27  86 SE13      29.87F WCI  20
DETROIT LAKES  MIX PCPN  32  32 100 S12       29.88F WCI  23
MOORHEAD       CLOUDY    34  32  93 S17       29.86F FOG     WCI  23
PARK RAPIDS    CLOUDY    30  26  85 SE16      29.92F FOG     WCI  19
$$
MNZ006-009>011-018-025>026-041000-
   North Central Minnesota

CITY           SKY/WX    TMP DP  RH WIND       PRES   REMARKS
BAUDETTE       LGT SNOW  26  23  88 SE12      29.93F FOG     WCI  16
FLAG ISLAND    LGT SNOW  28  27  93 SE14      29.92F WCI  17
INTL FALLS     LGT SNOW  26  22  84 SE9       29.98F VSB 3/4 WCI  17
WASKISH        CLOUDY    28  27  93 SE8       29.94F WCI  20
BIG FORK       LGT SNOW  27  25  93 SE7       29.98F WCI  19
LONGVILLE      LGT SNOW  28  27  93 SE8       29.96F WCI  20
GRAND RAPIDS   LGT SNOW  27  25  93 SE8       30.01F FOG     WCI  18
CRANE LAKE     LGT SNOW  25  21  86 CALM      30.05F
COOK           LGT SNOW  25  23  93 SE6       30.02F WCI  18
$$
MNZ012-019>021-037-041000-
   Northeast Minnesota

CITY           SKY/WX    TMP DP  RH WIND       PRES   REMARKS
DULUTH         LGT SNOW  26  24  92 SE8       30.05F FOG     WCI  18
ELY            FLURRIES  25  21  86 SE6       30.05S WCI  18
HIBBING        LGT SNOW  25  23  92 SE7       30.02F FOG     WCI  17
EVELETH        LGT SNOW  26  24  91 SE3       30.04F
DULUTH HARBOR  LGT SNOW  30  27  86 S3        30.11F
TWO HARBORS    CLOUDY    32  25  74 SE3       30.07S
SILVER BAY     CLOUDY    30  23  74 CALM      30.07F
GRAND MARAIS     N/A     35  25  66 S10       30.12F WCI  27
G MARAIS ARPRT CLOUDY    27  19  74 SE5       30.06F WCI  21
$$
MNZ029>031-032-039>041-046>048-054>057-064-041000-
   West Central Minnesota

CITY           SKY/WX    TMP DP  RH WIND       PRES   REMARKS
FERGUS FALLS   CLOUDY    34  34 100 S15       29.93F FOG     WCI  24
WHEATON        CLOUDY   N/A N/A N/A SE13      29.91  HAZE
MORRIS         CLOUDY    34  32  93 S12       29.91F FOG     WCI  25
ALEXANDRIA     CLOUDY    33  33 100 S16       29.93F FOG     WCI  23
ELBOW LAKE     CLOUDY    32  32  99 S16       29.90F FOG     WCI  21
WADENA         MIX PCPN  30  30 100 SE9       29.92F WCI  22
GLENWOOD       MIX PCPN  32  32 100 S14       29.94F WCI  22
APPLETON       CLOUDY    36  34  93 S13       29.92F
BENSON         CLOUDY    34  32  93 S9        29.94F WCI  26
ORTONVILLE     CLOUDY    34  30  86 S7        29.90F WCI  28
MADISON        CLOUDY    37  36  93 S13       29.92F
WILLMAR        CLOUDY    34  34 100 S8        29.97F WCI  27
$$
MNZ033>034-036-042>043-049>051-058-059-041000-
   Central Minnesota

CITY           SKY/WX    TMP DP  RH WIND       PRES   REMARKS
ST CLOUD       LGT SNOW  30  30 100 SE12      30.00F FOG     WCI  20
PAYNESVILLE    LGT SNOW  33  33 100 S10G16    29.98F WCI  24
AITKIN         LGT SNOW  30  25  80 SE8       29.99F WCI  23
PINE RIVER     LGT SNOW  28  28 100 SE9       29.99F WCI  20
BRAINERD       LGT SNOW  29  27  92 SE8       29.98F FOG     WCI  21
STAPLES        CLOUDY    28  28 100 SE7       29.94F WCI  21
LONG PRAIRIE   LGT SNOW  32  32 100 SE9       29.95F WCI  24
LITTLE FALLS   LGT SNOW  30  28  93 SE8       29.98F WCI  23
LITCHFIELD     MIX PCPN  34  34 100 SE9       29.99F WCI  26
BUFFALO        LGT SNOW  32  30  93 SE9       30.03F WCI  24
MAPLE LAKE     LGT SNOW  33  32  96 SE8       30.02F WCI  26
$$
MNZ037-044-045-052-053-041000-
   East Central Minnesota

CITY           SKY/WX    TMP DP  RH WIND       PRES   REMARKS
PRINCETON      LGT SNOW  30  28  93 SE9       30.03F WCI  22
MORA           LGT SNOW  30  28  93 SE5       30.05F WCI  25
CAMBRIDGE      LGT SNOW  32  27  80 SE6       30.03F WCI  26
RUSH CITY      CLOUDY    28  27  93 SE6       30.06F WCI  22
MOOSE LAKE     LGT SNOW  28  27  93 CALM      30.04F
HINCKLEY       LGT SNOW  30  28  93 SE6       30.06F WCI  24
CLOQUET        LGT SNOW  27  25  93 SE6       30.05F WCI  20
MCGREGOR       CLOUDY    28  27  93 SE8       30.02F VSB 1   WCI  20
$$
MNZ071>073-080-081-089-090-097-098-041000-
   Southwest Minnesota

CITY           SKY/WX    TMP DP  RH WIND       PRES   REMARKS
MONTEVIDEO     CLOUDY    34  34 100 SW9       29.96F WCI  26
GRANITE FALLS  CLOUDY    36  34  93 SE7       29.97F
CANBY          CLOUDY    36  33  89 CALM      29.93F
MARSHALL       CLOUDY    35  32  88 S12       29.95F WCI  27
REDWOOD FALLS  CLOUDY    34  32  92 S10       29.97F WCI  26
OLIVIA         CLOUDY    34  32  93 SE9       29.96F WCI  26
PIPESTONE      CLOUDY    34  34 100 SW14      29.92F FOG     WCI  24
WINDOM         CLOUDY    34  34 100 S7        29.97F WCI  28
WORTHINGTON    CLOUDY    33  32  96 S15       29.96F WCI  23
JACKSON        CLOUDY    32  32 100 S10       29.98F WCI  24
TRACY          CLOUDY    35  33  93 S15G21    29.95F WCI  25
SLAYTON        CLOUDY    32  32 100 S10       29.94F FOG     WCI  24
$$
MNZ065>067-074>077-082>085-091>093-041000-
   South Central Minnesota

CITY           SKY/WX    TMP DP  RH WIND       PRES   REMARKS
MANKATO        LGT SNOW  33  32  96 S10       30.02F FOG     WCI  25
NEW ULM        LGT SNOW  34  34 100 S9        30.00F WCI  26
ST JAMES       FLURRIES  34  34 100 SE9       30.00F WCI  26
FAIRMONT       FLURRIES  33  32  96 S14       30.00F WCI  23
GLENCOE        LGT SNOW  33  33 100 SE6       30.01F WCI  28
FARIBAULT      LGT SNOW  34  32  93 SE9       30.04F WCI  26
OWATONNA       LGT SNOW  34  30  86 SE12G17   30.04F WCI  25
WASECA         LGT SNOW  32  32 100 SE9       30.04F WCI  24
ALBERT LEA     LGT SNOW  36  36 100 S10       30.03F
$$
MNZ078>079-086>088-094>096-041000-
   Southeast Minnesota

CITY           SKY/WX    TMP DP  RH WIND       PRES   REMARKS
ROCHESTER      LGT SNOW  32  31  96 S12       30.06F FOG     WCI  23
RED WING       LGT SNOW  32  30  93 SE7       30.08F WCI  26
STANTON        LGT SNOW  33  31  92 SE6       30.04F WCI  28
DODGE CENTER   LGT SNOW  30  30 100 SE10      30.05F WCI  21
WINONA         LGT SNOW  32  32 100 SE7       30.13F WCI  26
AUSTIN         LGT SNOW  32  30  93 SE8       30.05F WCI  25
PRESTON        LGT SNOW  31  30  95 SE9       30.09F WCI  23
$$
ABBREVIATIONS USED IN REMARKS
   TC - TEMPERATURES IN CELSIUS
  WCI - WIND CHILL INDEX
   HX - HEAT INDEX
  VSB - VISIBILITY
$$




USA.gov is the U.S. government's official web portal to all federal, state and local government web resources and services.